Location: Franzen
(48.6167°N, 15.3833°E)
Time: 13:49:51
(UTC+00:00)

Cosmos 1655 Rocket - Pass Details

Date: 06 August 2021
Orbit: 969 x 1007 km, 82.9° (Epoch: 25 September)

Event Time Altitude Azimuth Distance (km) Brightness Sun altitude
Exits shadow 20:47:39 10° 199° (SSW) 2,798 6.1 -18.2°
Reaches altitude 10° 20:47:44 10° 199° (SSW) 2,771 6.0 -18.2°
Maximum altitude 20:54:04 67° 282° (WNW) 1,088 4.4 -18.8°
Drops below altitude 10° 21:00:29 10° 5° (N) 2,796 7.2 -19.3°
Sets 21:03:04 0° 8° (N) 3,749 7.9 -19.6°
